Time,TemperatureF,DewpointF,PressureIn,WindDirection,WindDirectionDegrees,WindSpeedMPH,WindSpeedGustMPH,Humidity,HourlyPrecipIn,Conditions,Clouds,dailyrainin,SoftwareType,DateUTC
2013-05-25 00:01:00,60.3,47.7,30.11,SE,135,0.9,1.8,63,0.00,,,0.00,WUHU216HW,2013-05-25 05:01:00,
2013-05-25 00:06:00,60.1,47.9,30.11,ESE,113,0.9,0.9,64,0.00,,,0.00,WUHU216HW,2013-05-25 05:06:00,
2013-05-25 00:11:00,60.1,47.5,30.11,SE,141,0.8,1.1,63,0.00,,,0.00,WUHU216HW,2013-05-25 05:11:00,
2013-05-25 00:16:00,59.9,47.4,30.11,SE,135,1.1,1.6,63,0.00,,,0.00,WUHU216HW,2013-05-25 05:16:00,
2013-05-25 00:21:00,59.8,47.2,30.11,SSE,152,0.8,1.6,63,0.00,,,0.00,WUHU216HW,2013-05-25 05:21:00,
2013-05-25 00:26:00,59.8,47.2,30.11,SSE,149,0.6,1.3,63,0.00,,,0.00,WUHU216HW,2013-05-25 05:26:00,
2013-05-25 00:31:00,59.6,47.3,30.11,SSE,158,0.2,1.1,64,0.00,,,0.00,WUHU216HW,2013-05-25 05:31:00,
2013-05-25 00:36:00,59.6,47.3,30.12,SSW,203,0.7,1.1,64,0.00,,,0.00,WUHU216HW,2013-05-25 05:36:00,
2013-05-25 00:41:00,59.4,47.2,30.12,SSE,158,0.7,2.7,64,0.00,,,0.00,WUHU216HW,2013-05-25 05:41:00,
2013-05-25 00:46:00,59.4,47.2,30.12,SE,135,0.7,2.7,64,0.00,,,0.00,WUHU216HW,2013-05-25 05:46:00,
2013-05-25 00:51:00,59.2,47.0,30.12,SE,135,0.9,0.9,64,0.00,,,0.00,WUHU216HW,2013-05-25 05:51:00,
2013-05-25 00:56:00,59.0,47.3,30.12,SE,135,0.7,1.1,65,0.00,,,0.00,WUHU216HW,2013-05-25 05:56:00,
2013-05-25 01:01:00,58.9,47.1,30.11,SE,135,0.9,1.6,65,0.00,,,0.00,WUHU216HW,2013-05-25 06:01:00,
2013-05-25 01:06:00,58.7,46.9,30.12,SE,135,0.2,1.6,65,0.00,,,0.00,WUHU216HW,2013-05-25 06:06:00,
2013-05-25 01:11:00,58.7,46.9,30.12,East,90,0.2,1.3,65,0.00,,,0.00,WUHU216HW,2013-05-25 06:11:00,
2013-05-25 01:16:00,58.5,46.7,30.12,SE,135,0.4,0.4,65,0.00,,,0.00,WUHU216HW,2013-05-25 06:16:00,
2013-05-25 01:21:00,58.3,47.0,30.12,South,180,0.0,0.7,66,0.00,,,0.00,WUHU216HW,2013-05-25 06:21:00,
2013-05-25 01:26:00,58.3,47.0,30.12,SE,135,0.4,0.7,66,0.00,,,0.00,WUHU216HW,2013-05-25 06:26:00,
2013-05-25 01:31:00,58.1,46.8,30.12,SSE,158,0.4,0.9,66,0.00,,,0.00,WUHU216HW,2013-05-25 06:31:00,
2013-05-25 01:36:00,58.1,46.8,30.12,SSE,158,0.9,1.1,66,0.00,,,0.00,WUHU216HW,2013-05-25 06:36:00,
2013-05-25 01:41:00,58.1,46.8,30.12,ESE,113,0.2,1.1,66,0.00,,,0.00,WUHU216HW,2013-05-25 06:41:00,
2013-05-25 01:46:00,58.0,46.6,30.12,East,90,0.4,1.6,66,0.00,,,0.00,WUHU216HW,2013-05-25 06:46:00,
2013-05-25 01:51:00,58.0,46.6,30.11,ESE,113,0.6,1.6,66,0.00,,,0.00,WUHU216HW,2013-05-25 06:51:00,
2013-05-25 01:56:00,57.8,46.9,30.11,SSW,198,0.3,1.6,67,0.00,,,0.00,WUHU216HW,2013-05-25 06:56:00,
2013-05-25 02:01:00,57.8,46.9,30.11,SE,135,1.1,1.6,67,0.00,,,0.00,WUHU216HW,2013-05-25 07:01:00,
2013-05-25 02:06:00,57.6,46.7,30.11,SE,135,0.9,1.6,67,0.00,,,0.00,WUHU216HW,2013-05-25 07:06:00,
2013-05-25 02:11:00,57.4,46.5,30.11,SE,135,0.3,1.3,67,0.00,,,0.00,WUHU216HW,2013-05-25 07:11:00,
2013-05-25 02:16:00,57.4,46.5,30.11,SSE,158,0.2,1.8,67,0.00,,,0.00,WUHU216HW,2013-05-25 07:16:00,
2013-05-25 02:21:00,57.4,46.5,30.10,SSE,158,0.2,1.8,67,0.00,,,0.00,WUHU216HW,2013-05-25 07:21:00,
2013-05-25 02:26:00,57.2,46.4,30.10,East,100,0.8,1.3,67,0.00,,,0.00,WUHU216HW,2013-05-25 07:26:00,
2013-05-25 02:31:00,57.2,46.4,30.10,WNW,293,0.4,1.3,67,0.00,,,0.00,WUHU216HW,2013-05-25 07:31:00,
2013-05-25 02:36:00,57.2,46.7,30.10,West,270,0.4,1.1,68,0.00,,,0.00,WUHU216HW,2013-05-25 07:36:00,
2013-05-25 02:41:00,57.1,46.5,30.10,ESE,122,1.6,2.5,68,0.00,,,0.00,WUHU216HW,2013-05-25 07:41:00,
2013-05-25 02:46:00,57.1,46.5,30.10,SSW,203,0.9,2.5,68,0.00,,,0.00,WUHU216HW,2013-05-25 07:46:00,
2013-05-25 02:51:00,57.1,46.5,30.10,SE,135,0.4,1.8,68,0.00,,,0.00,WUHU216HW,2013-05-25 07:51:00,
2013-05-25 02:56:00,56.9,46.5,30.10,SE,135,0.9,1.6,68,0.00,,,0.00,WUHU216HW,2013-05-25 07:56:00,
2013-05-25 03:01:00,56.9,46.5,30.10,ESE,113,0.3,0.9,68,0.00,,,0.00,WUHU216HW,2013-05-25 08:01:00,
2013-05-25 03:06:00,56.9,46.5,30.10,SE,135,0.4,0.7,68,0.00,,,0.00,WUHU216HW,2013-05-25 08:06:00,
2013-05-25 03:11:00,56.9,46.5,30.10,SE,131,1.0,1.6,68,0.00,,,0.00,WUHU216HW,2013-05-25 08:11:00,
2013-05-25 03:16:00,56.9,46.8,30.10,SSE,158,2.0,3.1,69,0.00,,,0.00,WUHU216HW,2013-05-25 08:16:00,
2013-05-25 03:21:00,56.7,46.6,30.10,SE,135,1.8,3.1,69,0.00,,,0.00,WUHU216HW,2013-05-25 08:21:00,
2013-05-25 03:26:00,56.7,46.6,30.10,NE,45,1.3,2.5,69,0.00,,,0.00,WUHU216HW,2013-05-25 08:26:00,
2013-05-25 03:31:00,56.5,46.4,30.10,SSE,158,0.4,2.5,69,0.00,,,0.00,WUHU216HW,2013-05-25 08:31:00,
2013-05-25 03:36:00,56.5,46.4,30.10,SE,135,0.4,1.8,69,0.00,,,0.00,WUHU216HW,2013-05-25 08:36:00,
2013-05-25 03:41:00,56.3,46.3,30.10,SE,135,0.3,1.8,69,0.00,,,0.00,WUHU216HW,2013-05-25 08:41:00,
2013-05-25 03:46:00,56.3,46.3,30.11,SE,135,0.4,0.7,69,0.00,,,0.00,WUHU216HW,2013-05-25 08:46:00,
2013-05-25 03:51:00,56.2,46.2,30.10,SSE,158,0.0,0.7,69,0.00,,,0.00,WUHU216HW,2013-05-25 08:51:00,
2013-05-25 03:56:00,56.2,46.2,30.11,SSE,168,0.6,0.9,69,0.00,,,0.00,WUHU216HW,2013-05-25 08:56:00,
2013-05-25 04:01:00,56.2,46.2,30.11,WNW,293,0.1,0.9,69,0.00,,,0.00,WUHU216HW,2013-05-25 09:01:00,
2013-05-25 04:06:00,56.0,46.0,30.11,NNW,338,0.0,0.2,69,0.00,,,0.00,WUHU216HW,2013-05-25 09:06:00,
2013-05-25 04:11:00,56.0,46.4,30.10,ESE,113,0.6,0.9,70,0.00,,,0.00,WUHU216HW,2013-05-25 09:11:00,
2013-05-25 04:16:00,55.8,46.3,30.10,SE,135,0.4,0.9,70,0.00,,,0.00,WUHU216HW,2013-05-25 09:16:00,
2013-05-25 04:21:00,55.8,46.3,30.11,SE,135,0.7,0.7,70,0.00,,,0.00,WUHU216HW,2013-05-25 09:21:00,
2013-05-25 04:26:00,55.6,46.1,30.11,SE,135,0.4,0.7,70,0.00,,,0.00,WUHU216HW,2013-05-25 09:26:00,
2013-05-25 04:31:00,55.6,46.5,30.11,WNW,293,1.6,1.6,71,0.00,,,0.00,WUHU216HW,2013-05-25 09:31:00,
2013-05-25 04:36:00,55.4,46.3,30.11,SE,135,0.2,1.6,71,0.00,,,0.00,WUHU216HW,2013-05-25 09:36:00,
2013-05-25 04:41:00,55.4,46.3,30.11,South,171,1.0,1.6,71,0.00,,,0.00,WUHU216HW,2013-05-25 09:41:00,
2013-05-25 04:46:00,55.4,46.3,30.11,ESE,113,0.0,1.6,71,0.00,,,0.00,WUHU216HW,2013-05-25 09:46:00,
2013-05-25 04:51:00,55.4,46.3,30.11,ESE,113,0.6,1.8,71,0.00,,,0.00,WUHU216HW,2013-05-25 09:51:00,
2013-05-25 04:57:00,55.3,46.1,30.11,SE,135,0.2,1.8,71,0.00,,,0.00,WUHU216HW,2013-05-25 09:57:00,
2013-05-25 05:02:00,55.3,46.5,30.11,WSW,248,0.7,1.1,72,0.00,,,0.00,WUHU216HW,2013-05-25 10:02:00,
2013-05-25 05:07:00,55.3,46.5,30.11,ESE,113,0.2,1.1,72,0.00,,,0.00,WUHU216HW,2013-05-25 10:07:00,
2013-05-25 05:12:00,55.3,46.5,30.11,ESE,113,1.1,1.1,72,0.00,,,0.00,WUHU216HW,2013-05-25 10:12:00,
2013-05-25 05:17:00,55.3,46.5,30.11,SSW,198,0.6,1.1,72,0.00,,,0.00,WUHU216HW,2013-05-25 10:17:00,
2013-05-25 05:22:00,55.1,46.3,30.11,SSE,158,0.2,0.9,72,0.00,,,0.00,WUHU216HW,2013-05-25 10:22:00,
2013-05-25 05:27:00,55.1,46.3,30.10,SSE,158,0.4,0.4,72,0.00,,,0.00,WUHU216HW,2013-05-25 10:27:00,
2013-05-25 05:32:00,55.1,46.3,30.11,ENE,68,0.9,0.9,72,0.00,,,0.00,WUHU216HW,2013-05-25 10:32:00,
2013-05-25 05:37:00,55.1,46.6,30.11,SE,135,0.4,1.1,73,0.00,,,0.00,WUHU216HW,2013-05-25 10:37:00,
2013-05-25 05:42:00,55.1,46.6,30.11,ESE,113,0.4,1.1,73,0.00,,,0.00,WUHU216HW,2013-05-25 10:42:00,
2013-05-25 05:47:00,55.1,46.6,30.11,East,98,0.6,0.7,73,0.00,,,0.00,WUHU216HW,2013-05-25 10:47:00,
2013-05-25 05:52:00,55.1,46.6,30.11,ESE,113,0.2,0.9,73,0.00,,,0.00,WUHU216HW,2013-05-25 10:52:00,
2013-05-25 05:57:00,55.1,46.6,30.11,SSE,158,0.4,0.9,73,0.00,,,0.00,WUHU216HW,2013-05-25 10:57:00,
2013-05-25 06:02:00,54.9,46.5,30.12,SSE,152,1.3,1.8,73,0.00,,,0.00,WUHU216HW,2013-05-25 11:02:00,
2013-05-25 06:07:00,54.9,46.5,30.12,SE,135,0.0,1.8,73,0.00,,,0.00,WUHU216HW,2013-05-25 11:07:00,
2013-05-25 06:12:00,54.9,46.5,30.12,ESE,113,1.1,1.1,73,0.00,,,0.00,WUHU216HW,2013-05-25 11:12:00,
2013-05-25 06:17:00,54.9,46.7,30.12,WSW,248,0.7,1.1,74,0.00,,,0.00,WUHU216HW,2013-05-25 11:17:00,
2013-05-25 06:22:00,55.1,46.9,30.12,SE,135,0.2,0.9,74,0.00,,,0.00,WUHU216HW,2013-05-25 11:22:00,
2013-05-25 06:27:00,55.1,46.9,30.12,SE,135,0.9,0.9,74,0.00,,,0.00,WUHU216HW,2013-05-25 11:27:00,
2013-05-25 06:32:00,55.3,47.1,30.13,SW,225,0.1,1.1,74,0.00,,,0.00,WUHU216HW,2013-05-25 11:32:00,
2013-05-25 06:37:00,55.4,47.3,30.13,NE,47,1.0,2.5,74,0.00,,,0.00,WUHU216HW,2013-05-25 11:37:00,
2013-05-25 06:42:00,55.8,47.6,30.15,WNW,291,2.3,2.7,74,0.00,,,0.00,WUHU216HW,2013-05-25 11:42:00,
2013-05-25 06:47:00,56.3,48.2,30.14,SE,135,0.1,2.7,74,0.00,,,0.00,WUHU216HW,2013-05-25 11:47:00,
2013-05-25 06:52:00,56.5,48.2,30.14,West,270,0.0,1.8,74,0.00,,,0.00,WUHU216HW,2013-05-25 11:52:00,
2013-05-25 06:57:00,56.7,48.1,30.14,ESE,113,0.7,1.1,73,0.00,,,0.00,WUHU216HW,2013-05-25 11:57:00,
2013-05-25 07:02:00,56.9,48.2,30.15,SE,135,0.1,2.0,73,0.00,,,0.00,WUHU216HW,2013-05-25 12:02:00,
2013-05-25 07:07:00,57.1,48.4,30.14,SE,135,1.1,2.0,73,0.00,,,0.00,WUHU216HW,2013-05-25 12:07:00,
2013-05-25 07:12:00,57.4,48.8,30.14,SSE,158,0.3,1.1,73,0.00,,,0.00,WUHU216HW,2013-05-25 12:12:00,
2013-05-25 07:17:00,57.6,49.0,30.14,SE,135,0.2,1.1,73,0.00,,,0.00,WUHU216HW,2013-05-25 12:17:00,
2013-05-25 07:22:00,58.0,49.3,30.14,WNW,293,0.4,2.5,73,0.00,,,0.00,WUHU216HW,2013-05-25 12:22:00,
2013-05-25 07:27:00,58.0,49.3,30.14,SSE,158,0.6,2.5,73,0.00,,,0.00,WUHU216HW,2013-05-25 12:27:00,
2013-05-25 07:32:00,58.1,49.5,30.14,SE,135,0.2,1.3,73,0.00,,,0.00,WUHU216HW,2013-05-25 12:32:00,
2013-05-25 07:37:00,58.1,49.5,30.14,SE,127,0.6,1.3,73,0.00,,,0.00,WUHU216HW,2013-05-25 12:37:00,
2013-05-25 07:42:00,58.3,49.7,30.14,SSW,192,0.8,2.0,73,0.00,,,0.00,WUHU216HW,2013-05-25 12:42:00,
2013-05-25 07:47:00,58.3,49.3,30.14,SSE,158,1.6,2.0,72,0.00,,,0.00,WUHU216HW,2013-05-25 12:47:00,
2013-05-25 07:52:00,58.5,49.9,30.14,SSE,158,0.4,1.6,73,0.00,,,0.00,WUHU216HW,2013-05-25 12:52:00,
2013-05-25 07:57:00,58.5,49.9,30.13,SSW,197,0.8,1.3,73,0.00,,,0.00,WUHU216HW,2013-05-25 12:57:00,
2013-05-25 08:02:00,58.7,50.0,30.13,SE,130,0.8,1.3,73,0.00,,,0.00,WUHU216HW,2013-05-25 13:02:00,
2013-05-25 08:07:00,58.7,50.0,30.13,ESE,113,0.7,1.3,73,0.00,,,0.00,WUHU216HW,2013-05-25 13:07:00,
2013-05-25 08:12:00,58.9,50.2,30.13,SE,135,0.9,1.1,73,0.00,,,0.00,WUHU216HW,2013-05-25 13:12:00,
2013-05-25 08:17:00,59.0,50.4,30.12,SE,128,0.3,1.1,73,0.00,,,0.00,WUHU216HW,2013-05-25 13:17:00,
2013-05-25 08:22:00,59.0,50.4,30.12,SSW,203,0.6,2.2,73,0.00,,,0.00,WUHU216HW,2013-05-25 13:22:00,
2013-05-25 08:27:00,59.4,50.8,30.13,East,90,0.2,3.1,73,0.00,,,0.00,WUHU216HW,2013-05-25 13:27:00,
2013-05-25 08:32:00,59.4,50.8,30.13,ESE,113,1.1,3.1,73,0.00,,,0.00,WUHU216HW,2013-05-25 13:32:00,
2013-05-25 08:37:00,59.6,50.9,30.13,SE,135,1.1,1.3,73,0.00,,,0.00,WUHU216HW,2013-05-25 13:37:00,
2013-05-25 08:42:00,59.8,51.1,30.13,SE,135,0.1,1.1,73,0.00,,,0.00,WUHU216HW,2013-05-25 13:42:00,
2013-05-25 08:47:00,59.9,51.3,30.13,SE,135,0.4,0.9,73,0.00,,,0.00,WUHU216HW,2013-05-25 13:47:00,
2013-05-25 08:52:00,59.9,51.3,30.13,SE,135,1.8,1.8,73,0.00,,,0.00,WUHU216HW,2013-05-25 13:52:00,
2013-05-25 08:57:00,60.1,51.5,30.13,SSW,203,0.4,1.8,73,0.00,,,0.00,WUHU216HW,2013-05-25 13:57:00,
2013-05-25 09:02:00,60.5,51.8,30.12,SE,135,1.1,1.1,73,0.00,,,0.00,WUHU216HW,2013-05-25 14:02:00,
2013-05-25 09:07:00,60.8,52.2,30.12,SSW,203,1.3,1.3,73,0.00,,,0.00,WUHU216HW,2013-05-25 14:07:00,
2013-05-25 09:12:00,61.4,52.7,30.12,ESE,113,1.1,1.3,73,0.00,,,0.00,WUHU216HW,2013-05-25 14:12:00,
2013-05-25 09:17:00,62.5,53.3,30.12,WSW,248,1.8,3.4,72,0.00,,,0.00,WUHU216HW,2013-05-25 14:17:00,
2013-05-25 09:22:00,63.4,54.5,30.11,South,180,1.1,3.4,73,0.00,,,0.00,WUHU216HW,2013-05-25 14:22:00,
2013-05-25 09:27:00,64.1,54.9,30.11,South,187,1.3,2.0,72,0.00,,,0.00,WUHU216HW,2013-05-25 14:27:00,
2013-05-25 09:32:00,64.6,54.7,30.10,East,94,3.3,3.6,70,0.00,,,0.00,WUHU216HW,2013-05-25 14:32:00,
2013-05-25 09:37:00,65.3,55.7,30.10,South,174,1.5,3.6,71,0.00,,,0.00,WUHU216HW,2013-05-25 14:37:00,
2013-05-25 09:42:00,65.9,55.8,30.10,West,270,2.5,2.5,70,0.00,,,0.00,WUHU216HW,2013-05-25 14:42:00,
2013-05-25 09:47:00,66.2,55.7,30.10,ENE,61,1.5,2.5,69,0.00,,,0.00,WUHU216HW,2013-05-25 14:47:00,
2013-05-25 09:52:00,66.6,56.1,30.11,South,170,3.0,4.9,69,0.00,,,0.00,WUHU216HW,2013-05-25 14:52:00,
2013-05-25 09:57:00,67.1,55.8,30.11,NNE,30,1.0,4.9,67,0.00,,,0.00,WUHU216HW,2013-05-25 14:57:00,
2013-05-25 10:02:00,67.5,56.6,30.11,West,270,2.2,2.5,68,0.00,,,0.00,WUHU216HW,2013-05-25 15:02:00,
2013-05-25 10:07:00,68.0,57.1,30.11,SSE,158,1.3,2.5,68,0.00,,,0.00,WUHU216HW,2013-05-25 15:07:00,
2013-05-25 10:12:00,68.4,57.0,30.11,WSW,248,2.0,2.0,67,0.00,,,0.00,WUHU216HW,2013-05-25 15:12:00,
2013-05-25 10:17:00,68.8,56.5,30.11,SE,135,1.3,2.0,65,0.00,,,0.00,WUHU216HW,2013-05-25 15:17:00,
2013-05-25 10:22:00,69.1,56.0,30.11,SW,236,1.7,1.8,63,0.00,,,0.00,WUHU216HW,2013-05-25 15:22:00,
2013-05-25 10:27:00,69.3,57.0,30.11,SW,225,2.5,3.1,65,0.00,,,0.00,WUHU216HW,2013-05-25 15:27:00,
2013-05-25 10:32:00,69.7,57.8,30.11,SSW,197,1.6,3.1,66,0.00,,,0.00,WUHU216HW,2013-05-25 15:32:00,
2013-05-25 10:37:00,70.0,57.2,30.11,South,182,1.5,2.9,64,0.00,,,0.00,WUHU216HW,2013-05-25 15:37:00,
2013-05-25 10:42:00,70.2,57.4,30.10,East,90,1.1,2.9,64,0.00,,,0.00,WUHU216HW,2013-05-25 15:42:00,
2013-05-25 10:47:00,70.6,58.6,30.10,WSW,248,1.1,2.0,66,0.00,,,0.00,WUHU216HW,2013-05-25 15:47:00,
2013-05-25 10:52:00,70.9,58.5,30.10,SE,135,3.1,4.0,65,0.00,,,0.00,WUHU216HW,2013-05-25 15:52:00,
2013-05-25 10:57:00,71.1,58.7,30.10,SSW,207,1.4,4.0,65,0.00,,,0.00,WUHU216HW,2013-05-25 15:57:00,
2013-05-25 11:02:00,71.5,59.5,30.09,WSW,248,1.3,3.4,66,0.00,,,0.00,WUHU216HW,2013-05-25 16:02:00,
2013-05-25 11:07:00,71.8,59.4,30.09,South,185,1.2,3.4,65,0.00,,,0.00,WUHU216HW,2013-05-25 16:07:00,
2013-05-25 11:12:00,72.0,60.4,30.09,SE,132,1.0,3.4,67,0.00,,,0.00,WUHU216HW,2013-05-25 16:12:00,
2013-05-25 11:17:00,72.4,60.3,30.09,SW,227,1.0,3.1,66,0.00,,,0.00,WUHU216HW,2013-05-25 16:17:00,
2013-05-25 11:22:00,72.4,60.3,30.10,South,180,1.8,3.1,66,0.00,,,0.00,WUHU216HW,2013-05-25 16:22:00,
2013-05-25 11:27:00,72.7,60.7,30.09,SE,135,1.7,2.2,66,0.00,,,0.00,WUHU216HW,2013-05-25 16:27:00,
2013-05-25 11:32:00,73.1,61.5,30.09,ESE,123,3.1,4.0,67,0.00,,,0.00,WUHU216HW,2013-05-25 16:32:00,
2013-05-25 11:37:00,73.8,62.2,30.10,ENE,68,1.5,4.0,67,0.00,,,0.00,WUHU216HW,2013-05-25 16:37:00,
2013-05-25 11:42:00,74.2,62.1,30.10,SE,135,0.7,1.8,66,0.00,,,0.00,WUHU216HW,2013-05-25 16:42:00,
2013-05-25 11:47:00,74.3,61.8,30.10,South,187,2.2,3.4,65,0.00,,,0.00,WUHU216HW,2013-05-25 16:47:00,
2013-05-25 11:52:00,74.2,61.7,30.09,West,270,1.3,3.4,65,0.00,,,0.00,WUHU216HW,2013-05-25 16:52:00,
2013-05-25 11:57:00,74.5,62.4,30.10,East,90,0.7,2.7,66,0.00,,,0.00,WUHU216HW,2013-05-25 16:57:00,
2013-05-25 12:02:00,74.7,62.1,30.10,SE,135,3.8,3.8,65,0.00,,,0.00,WUHU216HW,2013-05-25 17:02:00,
2013-05-25 12:07:00,74.9,62.7,30.10,SE,138,1.1,3.8,66,0.00,,,0.00,WUHU216HW,2013-05-25 17:07:00,
2013-05-25 12:12:00,75.2,63.1,30.10,WSW,250,0.9,2.5,66,0.00,,,0.00,WUHU216HW,2013-05-25 17:12:00,
2013-05-25 12:17:00,75.6,63.5,30.10,WSW,248,2.5,3.1,66,0.00,,,0.00,WUHU216HW,2013-05-25 17:17:00,
2013-05-25 12:22:00,75.8,62.7,30.10,SSW,201,2.9,4.0,64,0.00,,,0.00,WUHU216HW,2013-05-25 17:22:00,
2013-05-25 12:27:00,75.6,62.6,30.10,SSW,213,1.9,4.0,64,0.00,,,0.00,WUHU216HW,2013-05-25 17:27:00,
2013-05-25 12:32:00,75.8,62.3,30.10,SW,225,4.3,4.3,63,0.00,,,0.00,WUHU216HW,2013-05-25 17:32:00,
2013-05-25 12:37:00,75.4,63.3,30.10,ESE,113,3.4,4.3,66,0.00,,,0.00,WUHU216HW,2013-05-25 17:37:00,
2013-05-25 12:42:00,75.6,63.5,30.10,SW,216,0.9,3.4,66,0.00,,,0.00,WUHU216HW,2013-05-25 17:42:00,
2013-05-25 12:47:00,75.8,63.2,30.10,ESE,113,3.6,4.0,65,0.00,,,0.00,WUHU216HW,2013-05-25 17:47:00,
2013-05-25 12:52:00,75.8,62.7,30.10,SSW,203,2.2,6.5,64,0.00,,,0.00,WUHU216HW,2013-05-25 17:52:00,
2013-05-25 12:57:00,75.8,63.6,30.10,East,90,2.5,6.5,66,0.00,,,0.00,WUHU216HW,2013-05-25 17:57:00,
2013-05-25 13:02:00,76.0,63.4,30.09,SSW,203,1.3,4.7,65,0.00,,,0.00,WUHU216HW,2013-05-25 18:02:00,
2013-05-25 13:07:00,76.1,63.5,30.09,ESE,113,2.7,4.7,65,0.00,,,0.00,WUHU216HW,2013-05-25 18:07:00,
2013-05-25 13:12:00,76.3,63.6,30.09,SW,225,2.0,3.4,65,0.00,,,0.00,WUHU216HW,2013-05-25 18:12:00,
2013-05-25 13:17:00,76.7,64.4,30.09,South,173,1.1,3.4,66,0.00,,,0.00,WUHU216HW,2013-05-25 18:17:00,
2013-05-25 13:22:00,76.5,63.8,30.09,East,82,0.8,4.0,65,0.00,,,0.00,WUHU216HW,2013-05-25 18:22:00,
2013-05-25 13:27:00,76.5,63.8,30.09,SE,135,2.0,4.0,65,0.00,,,0.00,WUHU216HW,2013-05-25 18:27:00,
2013-05-25 13:32:00,76.3,63.6,30.09,SW,232,1.3,4.5,65,0.00,,,0.00,WUHU216HW,2013-05-25 18:32:00,
2013-05-25 13:37:00,76.7,63.5,30.09,SW,225,3.4,4.5,64,0.00,,,0.00,WUHU216HW,2013-05-25 18:37:00,
2013-05-25 13:42:00,76.9,64.6,30.09,SW,225,1.7,3.4,66,0.00,,,0.00,WUHU216HW,2013-05-25 18:42:00,
2013-05-25 13:47:00,77.0,64.4,30.09,North,359,0.8,2.5,65,0.00,,,0.00,WUHU216HW,2013-05-25 18:47:00,
2013-05-25 13:52:00,77.4,65.6,30.09,SSW,203,1.0,2.0,67,0.00,,,0.00,WUHU216HW,2013-05-25 18:52:00,
2013-05-25 13:57:00,77.6,64.0,30.09,SE,136,1.9,2.0,63,0.00,,,0.00,WUHU216HW,2013-05-25 18:57:00,
2013-05-25 14:02:00,77.8,65.1,30.09,East,90,1.7,2.2,65,0.00,,,0.00,WUHU216HW,2013-05-25 19:02:00,
2013-05-25 14:07:00,77.8,65.5,30.09,SSW,200,1.0,2.2,66,0.00,,,0.00,WUHU216HW,2013-05-25 19:07:00,
2013-05-25 14:12:00,78.1,65.0,30.08,SSW,203,3.4,3.4,64,0.00,,,0.00,WUHU216HW,2013-05-25 19:12:00,
2013-05-25 14:17:00,78.3,64.7,30.09,SE,135,1.3,4.3,63,0.00,,,0.00,WUHU216HW,2013-05-25 19:17:00,
2013-05-25 14:22:00,78.3,64.3,30.08,SSW,203,2.5,4.3,62,0.00,,,0.00,WUHU216HW,2013-05-25 19:22:00,
2013-05-25 14:27:00,78.7,65.4,30.08,ESE,113,2.5,2.5,64,0.00,,,0.00,WUHU216HW,2013-05-25 19:27:00,
2013-05-25 14:32:00,78.8,64.8,30.08,SSW,203,3.8,4.3,62,0.00,,,0.00,WUHU216HW,2013-05-25 19:32:00,
2013-05-25 14:37:00,79.0,66.3,30.08,WSW,248,1.1,4.3,65,0.00,,,0.00,WUHU216HW,2013-05-25 19:37:00,
2013-05-25 14:42:00,79.2,65.5,30.08,SE,145,3.0,3.6,63,0.00,,,0.00,WUHU216HW,2013-05-25 19:42:00,
2013-05-25 14:47:00,79.2,65.1,30.07,South,180,1.6,3.1,62,0.00,,,0.00,WUHU216HW,2013-05-25 19:47:00,
2013-05-25 14:52:00,79.4,65.3,30.07,SW,225,4.0,6.3,62,0.00,,,0.00,WUHU216HW,2013-05-25 19:52:00,
2013-05-25 14:57:00,79.6,65.9,30.07,ESE,113,2.9,6.3,63,0.00,,,0.00,WUHU216HW,2013-05-25 19:57:00,
2013-05-25 15:02:00,79.7,66.5,30.06,SSE,158,1.3,2.9,64,0.00,,,0.00,WUHU216HW,2013-05-25 20:02:00,
2013-05-25 15:07:00,80.1,66.3,30.06,NNW,338,1.5,3.6,63,0.00,,,0.00,WUHU216HW,2013-05-25 20:07:00,
2013-05-25 15:12:00,80.5,66.2,30.06,SE,135,2.7,3.6,62,0.00,,,0.00,WUHU216HW,2013-05-25 20:12:00,
2013-05-25 15:17:00,81.0,66.8,30.06,East,101,1.2,3.6,62,0.00,,,0.00,WUHU216HW,2013-05-25 20:17:00,
2013-05-25 15:22:00,81.0,66.3,30.06,SW,225,1.6,2.7,61,0.00,,,0.00,WUHU216HW,2013-05-25 20:22:00,
2013-05-25 15:27:00,81.0,65.4,30.06,South,176,1.4,3.4,59,0.00,,,0.00,WUHU216HW,2013-05-25 20:27:00,
2013-05-25 15:32:00,80.8,66.2,30.06,SE,135,2.5,3.4,61,0.00,,,0.00,WUHU216HW,2013-05-25 20:32:00,
2013-05-25 15:37:00,80.8,66.6,30.06,SSE,149,1.2,2.7,62,0.00,,,0.00,WUHU216HW,2013-05-25 20:37:00,
2013-05-25 15:42:00,81.0,66.8,30.05,SE,133,1.4,2.7,62,0.00,,,0.00,WUHU216HW,2013-05-25 20:42:00,
2013-05-25 15:47:00,81.0,66.3,30.05,SE,135,1.8,2.0,61,0.00,,,0.00,WUHU216HW,2013-05-25 20:47:00,
2013-05-25 15:52:00,81.4,66.6,30.05,SE,145,2.7,2.9,61,0.00,,,0.00,WUHU216HW,2013-05-25 20:52:00,
2013-05-25 15:57:00,81.4,66.2,30.05,SW,225,2.7,2.9,60,0.00,,,0.00,WUHU216HW,2013-05-25 20:57:00,
2013-05-25 16:02:00,81.4,66.2,30.05,SW,216,1.5,2.7,60,0.00,,,0.00,WUHU216HW,2013-05-25 21:02:00,
2013-05-25 16:07:00,81.4,66.2,30.04,SSE,158,1.8,4.0,60,0.00,,,0.00,WUHU216HW,2013-05-25 21:07:00,
2013-05-25 16:12:00,81.7,66.5,30.04,SSW,203,2.9,4.0,60,0.00,,,0.00,WUHU216HW,2013-05-25 21:12:00,
2013-05-25 16:17:00,82.1,66.8,30.04,WSW,241,1.3,3.6,60,0.00,,,0.00,WUHU216HW,2013-05-25 21:17:00,
2013-05-25 16:22:00,81.9,66.7,30.04,ESE,109,1.1,3.6,60,0.00,,,0.00,WUHU216HW,2013-05-25 21:22:00,
2013-05-25 16:27:00,81.9,66.7,30.04,SW,225,2.3,3.4,60,0.00,,,0.00,WUHU216HW,2013-05-25 21:27:00,
2013-05-25 16:32:00,81.9,66.7,30.04,SW,232,2.0,3.4,60,0.00,,,0.00,WUHU216HW,2013-05-25 21:32:00,
2013-05-25 16:37:00,81.9,66.2,30.04,SSE,158,1.3,2.9,59,0.00,,,0.00,WUHU216HW,2013-05-25 21:37:00,
2013-05-25 16:42:00,81.9,66.2,30.04,South,189,3.8,4.0,59,0.00,,,0.00,WUHU216HW,2013-05-25 21:42:00,
2013-05-25 16:47:00,81.9,66.2,30.03,SE,135,3.4,4.0,59,0.00,,,0.00,WUHU216HW,2013-05-25 21:47:00,
2013-05-25 16:52:00,81.7,66.0,30.03,SSE,148,1.5,3.4,59,0.00,,,0.00,WUHU216HW,2013-05-25 21:52:00,
2013-05-25 16:57:00,81.7,66.5,30.03,ESE,120,1.7,4.0,60,0.00,,,0.00,WUHU216HW,2013-05-25 21:57:00,
2013-05-25 17:02:00,81.7,66.5,30.02,South,176,1.4,4.0,60,0.00,,,0.00,WUHU216HW,2013-05-25 22:02:00,
2013-05-25 17:07:00,81.7,66.5,30.02,ESE,113,1.3,3.6,60,0.00,,,0.00,WUHU216HW,2013-05-25 22:07:00,
2013-05-25 17:12:00,81.9,67.2,30.02,SSE,149,1.7,3.4,61,0.00,,,0.00,WUHU216HW,2013-05-25 22:12:00,
2013-05-25 17:17:00,82.1,66.8,30.02,SSW,193,2.5,4.0,60,0.00,,,0.00,WUHU216HW,2013-05-25 22:17:00,
2013-05-25 17:22:00,81.9,65.6,30.02,West,270,3.4,4.0,58,0.00,,,0.00,WUHU216HW,2013-05-25 22:22:00,
2013-05-25 17:27:00,81.7,66.5,30.02,SSE,161,1.5,3.4,60,0.00,,,0.00,WUHU216HW,2013-05-25 22:27:00,
2013-05-25 17:32:00,81.7,66.5,30.01,ESE,113,2.5,2.5,60,0.00,,,0.00,WUHU216HW,2013-05-25 22:32:00,
2013-05-25 17:37:00,81.5,65.8,30.01,SW,225,2.7,4.0,59,0.00,,,0.00,WUHU216HW,2013-05-25 22:37:00,
2013-05-25 17:42:00,81.7,66.5,30.01,SE,126,1.4,4.0,60,0.00,,,0.00,WUHU216HW,2013-05-25 22:42:00,
2013-05-25 17:47:00,81.5,65.8,30.01,ESE,117,1.2,3.8,59,0.00,,,0.00,WUHU216HW,2013-05-25 22:47:00,
2013-05-25 17:52:00,81.5,66.3,30.00,North,355,1.7,3.8,60,0.00,,,0.00,WUHU216HW,2013-05-25 22:52:00,
2013-05-25 17:57:00,81.5,65.8,30.00,ESE,113,3.8,3.8,59,0.00,,,0.00,WUHU216HW,2013-05-25 22:57:00,
2013-05-25 18:02:00,81.4,66.2,30.00,SE,135,1.8,3.8,60,0.00,,,0.00,WUHU216HW,2013-05-25 23:02:00,
2013-05-25 18:07:00,81.4,66.2,30.00,SSE,150,1.0,2.0,60,0.00,,,0.00,WUHU216HW,2013-05-25 23:07:00,
2013-05-25 18:12:00,81.0,66.3,30.00,NNW,344,0.7,2.0,61,0.00,,,0.00,WUHU216HW,2013-05-25 23:12:00,
2013-05-25 18:17:00,81.0,66.3,30.00,SSW,203,1.3,2.0,61,0.00,,,0.00,WUHU216HW,2013-05-25 23:17:00,
2013-05-25 18:22:00,81.0,66.3,30.00,East,90,1.1,2.0,61,0.00,,,0.00,WUHU216HW,2013-05-25 23:22:00,
2013-05-25 18:27:00,80.8,66.2,30.00,SSE,149,1.5,3.4,61,0.00,,,0.00,WUHU216HW,2013-05-25 23:27:00,
2013-05-25 18:32:00,80.6,66.0,30.00,East,90,1.5,3.4,61,0.00,,,0.00,WUHU216HW,2013-05-25 23:32:00,
2013-05-25 18:37:00,80.6,65.5,29.99,South,180,1.8,2.7,60,0.00,,,0.00,WUHU216HW,2013-05-25 23:37:00,
2013-05-25 18:42:00,80.5,65.8,30.00,SE,131,1.8,2.7,61,0.00,,,0.00,WUHU216HW,2013-05-25 23:42:00,
2013-05-25 18:47:00,80.3,66.1,30.00,SE,135,0.9,2.7,62,0.00,,,0.00,WUHU216HW,2013-05-25 23:47:00,
2013-05-25 18:52:00,80.3,66.1,29.99,ESE,113,0.9,2.2,62,0.00,,,0.00,WUHU216HW,2013-05-25 23:52:00,
2013-05-25 18:57:00,80.1,66.3,29.99,ESE,113,1.1,3.1,63,0.00,,,0.00,WUHU216HW,2013-05-25 23:57:00,
2013-05-25 19:02:00,79.9,65.8,29.99,SSE,158,1.1,3.1,62,0.00,,,0.00,WUHU216HW,2013-05-26 00:02:00,
2013-05-25 19:07:00,79.7,65.6,29.99,ESE,121,0.9,1.8,62,0.00,,,0.00,WUHU216HW,2013-05-26 00:07:00,
2013-05-25 19:12:00,79.6,65.4,29.98,ESE,113,0.9,1.1,62,0.00,,,0.00,WUHU216HW,2013-05-26 00:12:00,
2013-05-25 19:17:00,79.4,65.7,29.99,ESE,117,1.1,1.8,63,0.00,,,0.00,WUHU216HW,2013-05-26 00:17:00,
2013-05-25 19:22:00,79.0,65.8,29.99,ESE,113,1.6,2.5,64,0.00,,,0.00,WUHU216HW,2013-05-26 00:22:00,
2013-05-25 19:27:00,78.8,65.6,29.98,SE,135,0.6,2.5,64,0.00,,,0.00,WUHU216HW,2013-05-26 00:27:00,
2013-05-25 19:32:00,78.1,65.0,29.99,SE,135,0.3,1.8,64,0.00,,,0.00,WUHU216HW,2013-05-26 00:32:00,
2013-05-25 19:37:00,77.8,65.1,29.98,SE,135,0.4,1.8,65,0.00,,,0.00,WUHU216HW,2013-05-26 00:37:00,
2013-05-25 19:42:00,77.2,64.5,29.98,SSE,158,0.7,1.1,65,0.00,,,0.00,WUHU216HW,2013-05-26 00:42:00,
2013-05-25 19:47:00,76.7,64.4,29.98,ESE,113,0.4,1.1,66,0.00,,,0.00,WUHU216HW,2013-05-26 00:47:00,
2013-05-25 19:52:00,76.3,64.1,29.98,SE,135,0.9,1.3,66,0.00,,,0.00,WUHU216HW,2013-05-26 00:52:00,
2013-05-25 19:57:00,76.0,64.2,29.98,SE,135,2.2,2.2,67,0.00,,,0.00,WUHU216HW,2013-05-26 00:57:00,
2013-05-25 20:02:00,75.6,63.8,29.98,SE,135,0.4,2.2,67,0.00,,,0.00,WUHU216HW,2013-05-26 01:02:00,
2013-05-25 20:07:00,75.2,63.9,29.98,SE,135,0.4,2.2,68,0.00,,,0.00,WUHU216HW,2013-05-26 01:07:00,
2013-05-25 20:12:00,75.1,63.8,29.98,SSE,158,0.7,1.3,68,0.00,,,0.00,WUHU216HW,2013-05-26 01:12:00,
2013-05-25 20:17:00,74.7,63.9,29.98,ESE,113,0.4,2.0,69,0.00,,,0.00,WUHU216HW,2013-05-26 01:17:00,
2013-05-25 20:22:00,74.5,64.2,29.98,NE,45,0.2,2.0,70,0.00,,,0.00,WUHU216HW,2013-05-26 01:22:00,
2013-05-25 20:27:00,74.2,63.8,29.98,SE,135,0.4,0.9,70,0.00,,,0.00,WUHU216HW,2013-05-26 01:27:00,
2013-05-25 20:32:00,73.8,63.9,29.98,SSE,158,0.2,0.9,71,0.00,,,0.00,WUHU216HW,2013-05-26 01:32:00,
2013-05-25 20:37:00,73.6,63.7,29.98,SE,135,0.2,0.9,71,0.00,,,0.00,WUHU216HW,2013-05-26 01:37:00,
2013-05-25 20:42:00,73.4,63.5,29.98,East,90,0.2,0.9,71,0.00,,,0.00,WUHU216HW,2013-05-26 01:42:00,
2013-05-25 20:47:00,73.1,63.2,29.98,ESE,113,0.7,0.7,71,0.00,,,0.00,WUHU216HW,2013-05-26 01:47:00,
2013-05-25 20:52:00,72.9,63.4,29.98,South,180,0.9,1.6,72,0.00,,,0.00,WUHU216HW,2013-05-26 01:52:00,
2013-05-25 20:57:00,72.7,63.6,29.98,SE,144,0.6,1.6,73,0.00,,,0.00,WUHU216HW,2013-05-26 01:57:00,
2013-05-25 21:02:00,72.4,63.3,29.98,SE,135,0.4,1.1,73,0.00,,,0.00,WUHU216HW,2013-05-26 02:02:00,
2013-05-25 21:07:00,72.2,63.5,29.98,ESE,113,0.9,1.1,74,0.00,,,0.00,WUHU216HW,2013-05-26 02:07:00,
2013-05-25 21:12:00,72.0,63.3,29.98,SE,135,1.6,1.6,74,0.00,,,0.00,WUHU216HW,2013-05-26 02:12:00,
2013-05-25 21:17:00,71.8,63.1,29.98,SE,135,0.3,1.6,74,0.00,,,0.00,WUHU216HW,2013-05-26 02:17:00,
2013-05-25 21:22:00,71.6,62.9,29.98,SE,135,0.2,0.7,74,0.00,,,0.00,WUHU216HW,2013-05-26 02:22:00,
2013-05-25 21:27:00,71.5,62.7,29.98,ESE,113,0.4,0.7,74,0.00,,,0.00,WUHU216HW,2013-05-26 02:27:00,
2013-05-25 21:32:00,71.3,62.6,29.98,SE,135,0.4,1.1,74,0.00,,,0.00,WUHU216HW,2013-05-26 02:32:00,
2013-05-25 21:37:00,71.1,62.4,29.98,ESE,113,0.9,1.3,74,0.00,,,0.00,WUHU216HW,2013-05-26 02:37:00,
2013-05-25 21:42:00,70.9,62.2,29.98,ESE,113,0.3,1.3,74,0.00,,,0.00,WUHU216HW,2013-05-26 02:42:00,
2013-05-25 21:47:00,70.9,62.6,29.99,ESE,113,0.7,1.1,75,0.00,,,0.00,WUHU216HW,2013-05-26 02:47:00,
2013-05-25 21:52:00,70.7,62.4,29.98,SSE,158,1.8,1.8,75,0.00,,,0.00,WUHU216HW,2013-05-26 02:52:00,
2013-05-25 21:57:00,70.6,62.2,29.99,ESE,113,1.3,1.8,75,0.00,,,0.00,WUHU216HW,2013-05-26 02:57:00,
2013-05-25 22:02:00,70.6,62.2,29.99,ESE,113,1.3,1.6,75,0.00,,,0.00,WUHU216HW,2013-05-26 03:02:00,
2013-05-25 22:07:00,70.6,62.6,29.99,SE,135,0.4,1.3,76,0.00,,,0.00,WUHU216HW,2013-05-26 03:07:00,
2013-05-25 22:12:00,70.2,62.2,29.99,East,90,0.2,0.4,76,0.00,,,0.00,WUHU216HW,2013-05-26 03:12:00,
2013-05-25 22:18:00,70.2,62.2,30.00,ESE,103,0.4,0.7,76,0.00,,,0.00,WUHU216HW,2013-05-26 03:18:00,
2013-05-25 22:23:00,70.0,62.0,30.00,SE,135,0.3,0.9,76,0.00,,,0.00,WUHU216HW,2013-05-26 03:23:00,
2013-05-25 22:28:00,69.8,62.2,30.01,WSW,248,0.2,0.9,77,0.00,,,0.00,WUHU216HW,2013-05-26 03:28:00,
2013-05-25 22:33:00,69.7,62.1,30.01,South,180,0.9,1.8,77,0.00,,,0.00,WUHU216HW,2013-05-26 03:33:00,
2013-05-25 22:37:00,69.5,61.9,30.01,SSE,158,0.9,1.8,77,0.00,,,0.00,WUHU216HW,2013-05-26 03:37:00,
2013-05-25 22:43:00,69.5,61.9,30.02,East,90,1.1,1.1,77,0.00,,,0.00,WUHU216HW,2013-05-26 03:43:00,
2013-05-25 22:47:00,69.3,61.7,30.01,SSE,158,0.1,1.1,77,0.00,,,0.00,WUHU216HW,2013-05-26 03:47:00,
2013-05-25 22:53:00,69.1,61.6,30.02,SE,135,0.4,0.7,77,0.00,,,0.00,WUHU216HW,2013-05-26 03:53:00,
2013-05-25 22:58:00,69.1,61.6,30.02,SE,135,0.0,0.7,77,0.00,,,0.00,WUHU216HW,2013-05-26 03:58:00,
2013-05-25 23:01:00,68.9,61.8,30.02,East,90,0.1,0.7,78,0.00,,,0.00,WUHU216HW,2013-05-26 04:01:00,
2013-05-25 23:06:00,68.8,61.7,30.02,SE,135,0.0,1.1,78,0.00,,,0.00,WUHU216HW,2013-05-26 04:06:00,
2013-05-25 23:11:00,68.8,61.7,30.02,SE,135,0.0,1.1,78,0.00,,,0.00,WUHU216HW,2013-05-26 04:11:00,
2013-05-25 23:16:00,68.6,61.5,30.02,SSE,158,0.1,1.1,78,0.00,,,0.00,WUHU216HW,2013-05-26 04:16:00,
2013-05-25 23:21:00,68.6,61.5,30.02,SE,135,0.2,0.9,78,0.00,,,0.00,WUHU216HW,2013-05-26 04:21:00,
2013-05-25 23:26:00,68.4,61.7,30.02,SE,135,1.1,1.1,79,0.00,,,0.00,WUHU216HW,2013-05-26 04:26:00,
2013-05-25 23:31:00,68.4,61.7,30.02,SE,135,0.2,1.1,79,0.00,,,0.00,WUHU216HW,2013-05-26 04:31:00,
2013-05-25 23:36:00,68.2,61.6,30.02,SSE,158,0.3,1.1,79,0.00,,,0.00,WUHU216HW,2013-05-26 04:36:00,
2013-05-25 23:41:00,68.0,61.4,30.02,SE,135,0.2,0.4,79,0.00,,,0.00,WUHU216HW,2013-05-26 04:41:00,
2013-05-25 23:46:00,68.0,61.4,30.02,SE,135,0.4,0.4,79,0.00,,,0.00,WUHU216HW,2013-05-26 04:46:00,
2013-05-25 23:51:00,68.0,61.7,30.02,SE,135,0.2,0.4,80,0.00,,,0.00,WUHU216HW,2013-05-26 04:51:00,
2013-05-25 23:56:00,67.9,61.6,30.02,SE,128,0.6,0.9,80,0.00,,,0.00,WUHU216HW,2013-05-26 04:56:00,